Satellite: NOAA 17
Catalog number: 27453
Epoch time:      103026.92917377
Element set:     284 
Inclination:       98.7609 deg
RA of node:        98.2552 deg
Eccentricity:    0.0012639
Arg of perigee:    63.9284 deg
Mean anomaly:     296.3193 deg
Mean motion:   14.23279645 rev/day
Decay rate:    2.8599E-006 rev/day^2
Epoch rev:            3074
Checksum:              359

Satellite: HOT BIRD 6
Catalog number: 27499
Epoch time:      103013.80550721
Element set:     66 
Inclination:        0.0928 deg
RA of node:        32.8693 deg
Eccentricity:    0.0008090
Arg of perigee:   290.3889 deg
Mean anomaly:      92.5421 deg
Mean motion:    1.00271722 rev/day
Decay rate:    1.0600E-006 rev/day^2
Epoch rev:             147
Checksum:              269

Satellite: RUBIN 2
Catalog number: 27605
Epoch time:      103026.74296545
Element set:     39 
Inclination:       64.5538 deg
RA of node:       266.5521 deg
Eccentricity:    0.0029851
Arg of perigee:   119.4331 deg
Mean anomaly:     240.9748 deg
Mean motion:   14.71396196 rev/day
Decay rate:    6.8399E-006 rev/day^2
Epoch rev:             545
Checksum:              336

Satellite: STS 107
Catalog number: 27647
Epoch time:      103027.58333333
Element set:     46 
Inclination:       39.0184 deg
RA of node:       156.1829 deg
Eccentricity:    0.0009369
Arg of perigee:    99.7923 deg
Mean anomaly:     311.5781 deg
Mean motion:   16.00898656 rev/day
Decay rate:    6.7743E-004 rev/day^2
Epoch rev:             174
Checksum:              443


Read previous mail | Read next mail


 14.03.2026 04:09:53lGo back Go up